This demonstration page uses our WeatherBlox Daily Observations layout. Learn more.

40.92945, -100.16068

Hourly Observations for March 29, 2019

Temp ( °F °C ) Dew Point ( °F °C ) Humidity (%) Winds ( mph kmh ) Pressure ( in mb ) Visibility ( mi km ) Precip ( " mm )
12:15 am 00:15 Cloudy 45 7 35 1.5 68 68 ENE 14 22 30.18 1022 10 16.09344 0 0
12:35 am 00:35 Cloudy 44 6.8 35 1.5 69 69 NE 13 20 30.18 1022 10 16.09344 0 0
12:55 am 00:55 Cloudy 44 6.5 35 1.7 72 72 NE 13 20 30.18 1022 10 16.09344 0 0
1:15 am 01:15 Cloudy 43 6.3 35 1.8 73 73 NE 13 20 30.18 1022 10 16.09344 0 0
1:35 am 01:35 Cloudy 43 6.3 35 1.6 72 72 NE 10 17 30.18 1022 10 16.09344 0 0
1:55 am 01:55 Cloudy 43 6.1 35 1.5 73 73 ENE 13 20 30.18 1022 10 16.09344 0 0
2:15 am 02:15 Cloudy 43 6 35 1.5 73 73 ENE 12 19 30.15 1021 10 16.09344 0 0
2:35 am 02:35 Mostly Cloudy 42 5.7 34 1.3 74 74 ENE 13 20 30.15 1021 10 16.09344 0 0
2:55 am 02:55 Mostly Cloudy 42 5.7 35 1.5 75 75 ENE 7 11 30.18 1022 10 16.09344 0 0
3:15 am 03:15 Cloudy 42 5.6 35 1.5 75 75 ENE 10 17 30.18 1022 10 16.09344 0 0
3:35 am 03:35 Cloudy 42 5.5 35 1.4 75 75 ENE 12 19 30.18 1022 10 16.09344 0 0
3:55 am 03:55 Cloudy 42 5.5 35 1.5 76 76 NE 8 13 30.18 1022 10 16.09344 0 0
4:15 am 04:15 Cloudy 41 5.1 35 1.8 79 79 NE 10 17 30.15 1021 10 16.09344 0 0
4:35 am 04:35 Cloudy 41 5 35 1.7 79 79 NE 12 19 30.15 1021 10 16.09344 0 0
4:55 am 04:55 Cloudy 41 4.8 35 1.5 79 79 NE 15 24 30.12 1020 10 16.09344 0 0
5:15 am 05:15 Cloudy 40 4.3 35 1.5 82 82 NE 16 26 30.09 1019 10 16.09344 0 0
5:35 am 05:35 Cloudy with Light Rain 39 3.7 35 1.5 86 86 NE 20 31 30.12 1020 10 16.09344 0 0
5:55 am 05:55 Cloudy with Light Rain 38 3.4 35 1.4 87 87 ENE 17 28 30.12 1020 3 4.828032 0.06 1.524
6:15 am 06:15 Cloudy with Light Rain 38 3.1 34 1.1 87 87 ENE 16 26 30.12 1020 7 11.265408 0.03 0.762
6:35 am 06:35 Cloudy with Drizzle 37 2.8 34 1 88 88 NE 16 26 30.12 1020 7 11.265408 0.04 1.016
6:55 am 06:55 Cloudy 37 2.7 33 0.7 87 87 NE 13 20 30.12 1020 10 16.09344 0.04 1.016
7:15 am 07:15 Cloudy 37 2.5 33 0.5 87 87 NE 15 24 30.12 1020 10 16.09344 0 0
7:35 am 07:35 Cloudy with Rain 37 2.5 33 0.5 87 87 ENE 10 17 30.15 1021 10 16.09344 0.01 0.254
7:55 am 07:55 Cloudy with Light Snow 36 2.1 32 0.1 87 87 ENE 10 17 30.15 1021 4 6.437376 0.05 1.27
8:15 am 08:15 Cloudy with Light Rain 35 1.7 32 0.2 90 90 ENE 8 13 30.15 1021 7 11.265408 0.03 0.762
8:35 am 08:35 Cloudy 35 1.7 33 0.3 91 91 NE 10 17 30.12 1020 10 16.09344 0.03 0.762
8:55 am 08:55 Cloudy with Rain 35 1.8 33 0.5 91 91 NNE 10 17 30.15 1021 5 8.04672 0.04 1.016
9:15 am 09:15 Cloudy with Light Drizzle 36 2 33 0.6 91 91 N 10 17 30.15 1021 10 16.09344 0 0
9:35 am 09:35 Cloudy with Light Drizzle 36 2 33 0.6 91 91 NNE 9 15 30.15 1021 10 16.09344 0.01 0.254
9:55 am 09:55 Cloudy 36 2 33 0.5 90 90 NE 12 19 30.15 1021 10 16.09344 0.01 0.254
10:15 am 10:15 Cloudy with Light Rain 36 2 33 0.5 90 90 NE 12 19 30.15 1021 10 16.09344 0 0
10:35 am 10:35 Cloudy with Light Drizzle 36 2 33 0.4 89 89 NE 12 19 30.15 1021 10 16.09344 0 0
10:55 am 10:55 Cloudy 35 1.7 32 0.2 90 90 NE 12 19 30.15 1021 10 16.09344 0.01 0.254
11:15 am 11:15 Cloudy with Light Drizzle 35 1.8 33 0.5 91 91 NE 14 22 30.15 1021 10 16.09344 0 0
11:35 am 11:35 Cloudy 35 1.7 32 0.1 89 89 NE 14 22 30.15 1021 10 16.09344 0 0
11:55 am 11:55 Cloudy 35 1.8 32 -0.1 87 87 NE 17 28 30.12 1020 10 16.09344 0 0
12:15 pm 12:15 Cloudy 36 2 31 -0.5 84 84 ENE 21 33 30.12 1020 10 16.09344 0 0
12:35 pm 12:35 Cloudy 36 2.3 32 0 85 85 NE 14 22 30.12 1020 10 16.09344 0 0
12:55 pm 12:55 Cloudy 37 2.5 32 0 84 84 NE 16 26 30.12 1020 10 16.09344 0 0
1:15 pm 13:15 Cloudy 36 2.2 32 -0.1 85 85 ENE 16 26 30.12 1020 10 16.09344 0 0
1:35 pm 13:35 Cloudy 36 2.3 31 -0.3 83 83 ENE 14 22 30.12 1020 10 16.09344 0 0
1:55 pm 13:55 Cloudy 36 2.3 31 -0.6 81 81 ENE 16 26 30.12 1020 10 16.09344 0 0
2:15 pm 14:15 Cloudy 37 2.6 32 -0.1 83 83 ENE 14 22 30.12 1020 10 16.09344 0 0
2:35 pm 14:35 Cloudy 36 2.2 31 -0.6 82 82 ENE 16 26 30.12 1020 10 16.09344 0 0
2:55 pm 14:55 Cloudy 37 2.5 31 -0.5 81 81 ENE 14 22 30.12 1020 10 16.09344 0 0
3:15 pm 15:15 Cloudy 37 2.5 31 -0.6 80 80 NE 14 22 30.09 1019 10 16.09344 0 0
3:35 pm 15:35 Cloudy 36 2.4 31 -0.3 83 83 NNE 13 20 30.09 1019 10 16.09344 0 0
3:55 pm 15:55 Cloudy 36 2 31 -0.8 82 82 NNE 14 22 30.09 1019 10 16.09344 0 0
4:15 pm 16:15 Cloudy 35 1.6 31 -0.8 84 84 N 15 24 30.09 1019 10 16.09344 0 0
4:35 pm 16:35 Cloudy 34 1.1 31 -0.7 88 88 NNE 14 22 30.09 1019 10 16.09344 0 0
4:55 pm 16:55 Cloudy with Mist and Fog 34 1 31 -0.6 89 89 NNE 12 19 30.12 1020 4 6.437376 0 0
5:15 pm 17:15 Cloudy with Mist and Fog 33 0.6 31 -0.6 92 92 N 17 28 30.15 1021 2.5 4.02336 0 0
5:35 pm 17:35 Cloudy with Light Rain 33 0.4 31 -0.8 92 92 N 17 28 30.15 1021 2 3.218688 0 0
5:55 pm 17:55 Cloudy with Drizzle 32 0.2 30 -1 92 92 N 15 24 30.15 1021 1.75 2.816352 0 0
6:15 pm 18:15 Cloudy with Light Wintry Mix 32 0.2 30 -0.9 92 92 NNE 13 20 30.15 1021 1.5 2.414016 0.01 0.254
6:35 pm 18:35 Cloudy with Drizzle 33 0.3 31 -0.7 93 93 N 14 22 30.15 1021 2 3.218688 0.02 0.508
6:55 pm 18:55 Cloudy with Light Snow 32 0.2 30 -0.9 92 92 N 12 19 30.15 1021 1.25 2.01168 0.03 0.762
7:15 pm 19:15 Cloudy with Light Snow 32 0.1 31 -0.7 94 94 N 12 19 30.15 1021 0.75 1.207008 0.01 0.254
7:35 pm 19:35 Cloudy with Light Snow 32 0 31 -0.7 95 95 N 13 20 30.18 1022 0.75 1.207008 0.01 0.254
7:55 pm 19:55 Cloudy with Light Snow 32 0 31 -0.8 94 94 N 8 13 30.18 1022 1 1.609344 0.01 0.254
8:15 pm 20:15 Cloudy with Light Snow 32 0 31 -0.7 95 95 N 10 17 30.18 1022 1.5 2.414016 0 0
8:35 pm 20:35 Cloudy with Light Snow 32 0.1 31 -0.5 96 96 N 13 20 30.18 1022 1.5 2.414016 0.01 0.254
8:55 pm 20:55 Cloudy with Light Snow 32 0.2 31 -0.5 95 95 N 10 17 30.18 1022 2 3.218688 0.01 0.254
9:15 pm 21:15 Cloudy with Light Snow 33 0.3 31 -0.6 94 94 NNE 15 24 30.18 1022 2.5 4.02336 0.01 0.254
9:35 pm 21:35 Cloudy with Light Snow 32 0.1 31 -0.8 94 94 NNE 12 19 30.18 1022 7 11.265408 0.01 0.254
9:55 pm 21:55 Cloudy with Light Snow 32 0.1 31 -0.8 94 94 N 13 20 30.21 1023 3 4.828032 0.01 0.254
10:15 pm 22:15 Cloudy with Light Snow 32 0.1 31 -0.8 94 94 NNE 14 22 30.21 1023 2.5 4.02336 0 0
10:35 pm 22:35 Cloudy with Light Snow 32 0.1 30 -0.9 93 93 NNE 9 15 30.24 1024 7 11.265408 0 0
10:55 pm 22:55 Cloudy with Light Snow 32 0 29 -1.5 90 90 NNE 12 19 30.24 1024 7 11.265408 0 0
11:15 pm 23:15 Cloudy 32 -0.1 29 -1.6 90 90 NNE 14 22 30.24 1024 10 16.09344 0 0
11:35 pm 23:35 Cloudy 32 -0.1 29 -1.7 89 89 NNE 12 19 30.24 1024 10 16.09344 0 0
11:55 pm 23:55 Cloudy 32 -0.1 29 -1.7 89 89 N 10 17 30.24 1024 10 16.09344 0 0

Powered by AerisWeather